Find Sakura

NORAD ID: 10516 Int'l Des: 1977-118 Owner: NASDA Country: J operational
HEOCIRCULAR

Aktuelle Ansicht

3D-Globus wird geladen...

Über Sakura

Beschreibung wird geladen...

Nächste Überflüge

Passes for default location (London). Set your location on the main map for personalized predictions.

Höhenverlauf

Loading altitude history...

Zweizeiliger Elementsatz

1 10516U 77118A 26145.25933237 -.00000264 00000-0 00000+0 0 9991
2 10516 7.4320 297.2679 0002362 104.3878 96.5608 0.98917778135365
Epoch: 25. Mai 2026 • Age: 27 hours

Aktueller Status

Höhe 36179.4 km
Geschwindigkeit 3.06 km/s
Subsatellitenpunkt -6.94°S, 156.27°E
Startdatum 15. Dez. 1977
Alter 48.4 years
Typ other

Technische Details

Klassifizierung Payload
Masse 314.00 kg
Trockenmasse 276.00 kg
Gesamtmasse 677.00 kg
Länge 2.20 m
Durchmesser 2.20 m
Spannweite 3.80 m
Form Cyl + Ant
Hersteller MELCO/FORDA
Bus-Typ CS
Phasenstatus In Orbit
Besitzer/Staat NASDA/J

Most Searched